STARLINK-31886, 59662

Orbit data source: Space-Track

STARLINK-31886, 59662 is a payload satellite owned by SpaceX/Seattle (US) in LEO that was launched on Mon, 06 May 2024 UTC via an FALCON 9 launch vehicle from the Air Force Eastern Test Range (AFETR). Payload-class satellites include a variety of spacecraft equipped with specific instruments for various scientific and technological missions. These include communications satellites like Starlink; space stations such as the ISS; scientific satellites like the Hubble; Earth observation satellites from companies like Planet Labs, Umbra, and HawkEye 360; GPS; miniature CubeSats for education and research; and military/defense satellites.

Loading next visibility...
Identifier
59662, 2024-084J
Orbit
LEO
Country
Flag of USUS
Related business
Manufacturer
SpaceX/Seattle
Mission
Operational Commercial Communications
Bus & Motor
STARLINK V2M, Unknown motor
Mass
730 kg wet, ~700 kg dry
Launch date (UTC)
2024-05-06 (2 years ago)
Launch vehicle
FALCON 9
Launch site
Air Force Eastern Test Range (AFETR)
Object type
Payload
Rocket body
Debris
Shape & HBR
Box + 2 Pan, 17.7 m
Radar Cross Section
33.884 m², Large (>1 m²)

Expand to show TLE details & history
Last TLE update: 2 days ago

TLE from 2 days ago
0 STARLINK-31886
1 59662U 24084J   26171.03423868  .00000752  00000-0  36846-4 0  9992
2 59662  43.0027 183.9659 0001588 273.6119  86.4552 15.27577005120022
Epoch: 2026-06-20T00:49Z
TLE epoch observation values (Epoch: 2026-06-20T00:49:18.221Z)
Latitude
0.00003°
Longitude
-96.61465°
Altitude
482.767 km
Speed
7.626 km/s
True Right ascension
12h 15m 51s
True Declination
0° 00' 00"
Sunlit
Object was in daylight at epoch
Visualization orbit readout
Latitude
Unknown
Longitude
Unknown
Altitude
Unknown
Speed
Unknown
Apparent Right ascension
Unknown
Apparent Declination
Unknown
Sunlit
N/A
Visualization observer readout
Local Sidereal Time
21:49:25
Azimuth
Unknown
Elevation
Unknown
Doppler factor
Unknown
Orbital elements
Apogee altitude
486.093 km
Perigee altitude
483.913 km
Semi-major axis
6,863.14 km
Eccentricity
0.00016
Inclination
43.0027°
RAAN
183.9659°
Arg. of periapsis
273.6119°
True anomaly
86.47336°
Mean anomaly
86.4552°
Eccentric anomaly
86.46428°
Mean motion
3.81732 °/min
Orbital period
94.31 mins
BSTAR
0.000036846
Loading maneuver chart data...
Computing Atmospheric mass density...
Loading historical data...
Loading historical data...
Loading historical data...
Loading historical data...
Loading historical data...
Loading historical data...
Loading historical data...

Documentation

Showing up to 5 results
|